BON302K FACT-FYWH

Flight info

Callsign BON302K
Flight time N/A
Altitude 35000
Route KODES1A KODES UN186 NEVAR
Aircraft B38M/M-SDE1FGHILORVWXY/HB1

Departure

Time N/A
Airport Cape Town International Airport (FACT)

Arrival

Time 2026-05-06 09:50
Airport Hosea Kutako International Airport (FYWH)
Time Latitude Longitude Altitude Speed Heading
2026-05-06 08:34 -30.87730 18.34381 35215 ft 501 kts 347°
2026-05-06 08:34 -30.80856 18.33164 35217 ft 501 kts 347°
2026-05-06 08:34 -30.77408 18.32555 35385 ft 501 kts 347°
2026-05-06 08:35 -30.73963 18.31946 35654 ft 500 kts 347°
2026-05-06 08:35 -30.70527 18.31339 35926 ft 499 kts 347°
2026-05-06 08:35 -30.67101 18.30734 36201 ft 498 kts 347°
2026-05-06 08:35 -30.63677 18.30130 36443 ft 497 kts 347°
2026-05-06 08:36 -30.60256 18.29527 36702 ft 497 kts 347°
2026-05-06 08:36 -30.56846 18.28925 36936 ft 496 kts 347°
2026-05-06 08:36 -30.53436 18.28326 37160 ft 495 kts 347°
2026-05-06 08:37 -30.46639 18.27132 37196 ft 495 kts 346°
2026-05-06 08:37 -30.39901 18.25949 37224 ft 493 kts 346°
2026-05-06 08:38 -30.33115 18.24760 37217 ft 493 kts 346°
2026-05-06 08:38 -30.26333 18.23572 37210 ft 493 kts 346°
2026-05-06 08:39 -30.19554 18.22387 37215 ft 492 kts 346°
2026-05-06 08:39 -30.12784 18.21205 37207 ft 492 kts 346°
2026-05-06 08:40 -30.06018 18.20025 37216 ft 492 kts 346°
2026-05-06 08:40 -29.99252 18.18847 37225 ft 492 kts 346°
2026-05-06 08:41 -29.92489 18.17671 37217 ft 491 kts 346°
2026-05-06 08:41 -29.85725 18.16497 37207 ft 491 kts 346°
2026-05-06 08:42 -29.78961 18.15324 37227 ft 492 kts 346°
2026-05-06 08:42 -29.72196 18.14153 37219 ft 491 kts 346°
2026-05-06 08:43 -29.65434 18.12983 37202 ft 491 kts 346°
2026-05-06 08:43 -29.58686 18.11818 37209 ft 491 kts 346°
2026-05-06 08:44 -29.51979 18.10661 37211 ft 491 kts 346°
2026-05-06 08:44 -29.45230 18.09499 37210 ft 490 kts 346°
2026-05-06 08:45 -29.38483 18.08338 37200 ft 489 kts 345°
2026-05-06 08:45 -29.31749 18.07182 37206 ft 489 kts 345°
2026-05-06 08:46 -29.25017 18.06027 37206 ft 489 kts 345°
2026-05-06 08:46 -29.18293 18.04875 37208 ft 489 kts 345°
2026-05-06 08:47 -29.11565 18.03724 37198 ft 488 kts 345°
2026-05-06 08:47 -29.04850 18.02577 37207 ft 488 kts 345°
2026-05-06 08:48 -28.98137 18.01431 37212 ft 488 kts 345°
2026-05-06 08:48 -28.91423 18.00288 37205 ft 488 kts 345°
2026-05-06 08:49 -28.84714 17.99146 37198 ft 487 kts 345°
2026-05-06 08:49 -28.78014 17.98007 37224 ft 486 kts 345°
2026-05-06 08:50 -28.71324 17.96871 37206 ft 485 kts 345°
2026-05-06 08:50 -28.67999 17.96308 37088 ft 480 kts 344°
2026-05-06 08:50 -28.64719 17.95752 36714 ft 473 kts 344°
2026-05-06 08:50 -28.61502 17.95207 36587 ft 460 kts 344°
2026-05-06 08:51 -28.59426 17.94856 36566 ft 450 kts 343°
2026-05-06 08:51 -28.56384 17.94342 36549 ft 439 kts 343°
2026-05-06 08:51 -28.53363 17.93830 36535 ft 440 kts 343°
2026-05-06 08:52 -28.47248 17.92796 36526 ft 448 kts 343°
2026-05-06 08:52 -28.41026 17.91746 36520 ft 456 kts 344°
2026-05-06 08:53 -28.34693 17.90678 36509 ft 464 kts 344°
2026-05-06 08:53 -28.28269 17.89597 36462 ft 468 kts 343°
2026-05-06 08:54 -28.21769 17.88804 36426 ft 472 kts 349°
2026-05-06 08:54 -28.15220 17.88298 36404 ft 472 kts 348°
2026-05-06 08:55 -28.08672 17.87761 36381 ft 472 kts 348°
2026-05-06 08:55 -28.02129 17.87219 36325 ft 471 kts 348°
2026-05-06 08:56 -27.95591 17.86703 36295 ft 471 kts 348°
2026-05-06 08:56 -27.89091 17.86198 36270 ft 471 kts 348°
2026-05-06 08:57 -27.82557 17.85690 36240 ft 471 kts 348°
2026-05-06 08:57 -27.76024 17.85183 36191 ft 470 kts 348°
2026-05-06 08:58 -27.69495 17.84677 36166 ft 470 kts 347°
2026-05-06 08:58 -27.62970 17.84171 36141 ft 470 kts 347°
2026-05-06 08:59 -27.56443 17.83666 36113 ft 470 kts 347°
2026-05-06 08:59 -27.49921 17.83171 36089 ft 470 kts 348°
2026-05-06 09:00 -27.43388 17.82760 36101 ft 471 kts 348°
2026-05-06 09:00 -27.36841 17.82374 36103 ft 471 kts 348°
2026-05-06 09:01 -27.30293 17.81998 36101 ft 471 kts 348°
2026-05-06 09:01 -27.23750 17.81633 36090 ft 471 kts 348°
2026-05-06 09:02 -27.17201 17.81278 36090 ft 471 kts 348°
2026-05-06 09:02 -27.10657 17.80932 36089 ft 471 kts 348°
2026-05-06 09:03 -27.04104 17.80596 36088 ft 471 kts 349°
2026-05-06 09:03 -26.97553 17.80273 36092 ft 471 kts 349°
2026-05-06 09:04 -26.90996 17.79962 36060 ft 471 kts 349°
2026-05-06 09:04 -26.84448 17.79696 36088 ft 471 kts 349°
2026-05-06 09:05 -26.77897 17.79440 36087 ft 471 kts 349°
2026-05-06 09:05 -26.71392 17.79197 36088 ft 471 kts 349°
2026-05-06 09:06 -26.64840 17.78962 36091 ft 471 kts 349°
2026-05-06 09:06 -26.58291 17.78770 36101 ft 471 kts 349°
2026-05-06 09:07 -26.51739 17.78615 36088 ft 470 kts 349°
2026-05-06 09:07 -26.45192 17.78472 36085 ft 470 kts 349°
2026-05-06 09:08 -26.38648 17.78338 36089 ft 471 kts 349°
2026-05-06 09:08 -26.32096 17.78223 36060 ft 470 kts 349°
2026-05-06 09:09 -26.25561 17.78159 36081 ft 469 kts 349°
2026-05-06 09:09 -26.19041 17.78110 36082 ft 469 kts 350°
2026-05-06 09:10 -26.12518 17.78072 36085 ft 469 kts 350°
2026-05-06 09:10 -26.05995 17.78043 36085 ft 469 kts 350°
2026-05-06 09:11 -25.99476 17.78049 36090 ft 468 kts 350°
2026-05-06 09:11 -25.93005 17.78076 36084 ft 468 kts 350°
2026-05-06 09:12 -25.86496 17.78116 36086 ft 468 kts 350°
2026-05-06 09:12 -25.79991 17.78174 36081 ft 467 kts 350°
2026-05-06 09:13 -25.73482 17.78240 36057 ft 468 kts 350°
2026-05-06 09:13 -25.66980 17.78346 36083 ft 467 kts 351°
2026-05-06 09:14 -25.60480 17.78463 36082 ft 467 kts 351°
2026-05-06 09:14 -25.53983 17.78590 36085 ft 467 kts 351°
2026-05-06 09:15 -25.47481 17.78728 36091 ft 467 kts 351°
2026-05-06 09:15 -25.40987 17.78891 36083 ft 466 kts 351°
2026-05-06 09:16 -25.34509 17.79075 36080 ft 465 kts 351°
2026-05-06 09:16 -25.28033 17.79269 36083 ft 466 kts 351°
2026-05-06 09:17 -25.21604 17.80204 35915 ft 471 kts
2026-05-06 09:17 -25.18472 17.81056 35770 ft 461 kts
2026-05-06 09:17 -25.15295 17.81780 35496 ft 472 kts
2026-05-06 09:17 -25.12035 17.82497 35240 ft 483 kts
2026-05-06 09:18 -25.08713 17.83214 35166 ft 487 kts
2026-05-06 09:18 -25.01995 17.84644 35196 ft 496 kts
2026-05-06 09:19 -24.95261 17.86074 35199 ft 496 kts
2026-05-06 09:19 -24.88481 17.87511 35199 ft 496 kts
2026-05-06 09:20 -24.81712 17.88945 35189 ft 493 kts
2026-05-06 09:20 -24.74992 17.90366 35204 ft 491 kts
2026-05-06 09:21 -24.68282 17.91784 35200 ft 491 kts
2026-05-06 09:21 -24.61573 17.93200 35204 ft 491 kts
2026-05-06 09:22 -24.54869 17.94613 35206 ft 491 kts
2026-05-06 09:22 -24.48185 17.96022 35205 ft 487 kts
2026-05-06 09:23 -24.41528 17.97422 35211 ft 487 kts
2026-05-06 09:23 -24.34876 17.98820 35205 ft 487 kts
2026-05-06 09:24 -24.28222 18.00216 35201 ft 487 kts
2026-05-06 09:24 -24.21569 18.01612 35203 ft 487 kts
2026-05-06 09:25 -24.14916 18.03005 35204 ft 487 kts
2026-05-06 09:25 -24.08266 18.04397 35205 ft 487 kts
2026-05-06 09:26 -24.01616 18.05787 35205 ft 487 kts
2026-05-06 09:26 -23.94964 18.07176 35202 ft 486 kts
2026-05-06 09:27 -23.88325 18.08561 35189 ft 485 kts
2026-05-06 09:27 -23.81696 18.09943 35201 ft 485 kts
2026-05-06 09:27 -23.78404 18.10629 35044 ft 478 kts
2026-05-06 09:28 -23.75139 18.11308 34469 ft 478 kts
2026-05-06 09:28 -23.71891 18.11984 33759 ft 472 kts
2026-05-06 09:28 -23.68695 18.12649 33167 ft 463 kts
2026-05-06 09:28 -23.65574 18.13298 32756 ft 450 kts
2026-05-06 09:29 -23.62556 18.13925 32368 ft 440 kts
2026-05-06 09:29 -23.59557 18.14547 31911 ft 437 kts
2026-05-06 09:29 -23.56569 18.15166 31444 ft 436 kts
2026-05-06 09:29 -23.53587 18.15785 30969 ft 436 kts
2026-05-06 09:30 -23.50605 18.16403 30501 ft 436 kts
2026-05-06 09:30 -23.47625 18.17020 30000 ft 436 kts
2026-05-06 09:30 -23.44649 18.17637 29487 ft 435 kts
2026-05-06 09:30 -23.41677 18.18252 29032 ft 433 kts
2026-05-06 09:31 -23.38725 18.18863 28590 ft 431 kts
2026-05-06 09:31 -23.35785 18.19471 28139 ft 429 kts
2026-05-06 09:31 -23.32854 18.20077 27702 ft 428 kts
2026-05-06 09:31 -23.29932 18.20681 27259 ft 427 kts
2026-05-06 09:32 -23.27059 18.21274 26805 ft 425 kts
2026-05-06 09:32 -23.24164 18.21872 26393 ft 423 kts
2026-05-06 09:32 -23.21274 18.22468 25967 ft 422 kts
2026-05-06 09:32 -23.18354 18.23071 25530 ft 421 kts
2026-05-06 09:33 -23.15518 18.23656 25103 ft 420 kts
2026-05-06 09:33 -23.12649 18.24247 24678 ft 420 kts
2026-05-06 09:33 -23.09780 18.24838 24252 ft 419 kts
2026-05-06 09:33 -23.06914 18.25428 23823 ft 419 kts
2026-05-06 09:34 -23.04050 18.26018 23326 ft 418 kts
2026-05-06 09:34 -23.01197 18.26605 22875 ft 417 kts
2026-05-06 09:34 -22.98359 18.27189 22424 ft 414 kts
2026-05-06 09:34 -22.95543 18.27768 22010 ft 408 kts
2026-05-06 09:35 -22.92779 18.28336 21617 ft 400 kts
2026-05-06 09:35 -22.90070 18.28892 21223 ft 393 kts
2026-05-06 09:35 -22.87409 18.29438 20832 ft 386 kts
2026-05-06 09:35 -22.84789 18.29977 20442 ft 380 kts
2026-05-06 09:36 -22.82208 18.30506 20062 ft 375 kts
2026-05-06 09:36 -22.79646 18.31031 19688 ft 374 kts
2026-05-06 09:36 -22.77091 18.31550 19301 ft 373 kts
2026-05-06 09:36 -22.74555 18.31603 18886 ft 355 kts 342°
2026-05-06 09:37 -22.72323 18.30775 18599 ft 326 kts 322°
2026-05-06 09:37 -22.70603 18.29318 18277 ft 307 kts 304°
2026-05-06 09:37 -22.69298 18.27537 17947 ft 299 kts 299°
2026-05-06 09:37 -22.68106 18.25709 17621 ft 295 kts 296°
2026-05-06 09:38 -22.66982 18.23853 17286 ft 296 kts 295°
2026-05-06 09:38 -22.65881 18.21945 16978 ft 301 kts 295°
2026-05-06 09:38 -22.64788 18.19996 16673 ft 305 kts 294°
2026-05-06 09:38 -22.63698 18.18026 16356 ft 306 kts 294°
2026-05-06 09:39 -22.62628 18.16073 16068 ft 306 kts 294°
2026-05-06 09:39 -22.61548 18.14092 15754 ft 305 kts 293°
2026-05-06 09:39 -22.60479 18.12123 15442 ft 303 kts 293°
2026-05-06 09:39 -22.59417 18.10164 15130 ft 301 kts 293°
2026-05-06 09:40 -22.58362 18.08218 14818 ft 299 kts 292°
2026-05-06 09:40 -22.57311 18.06280 14514 ft 298 kts 292°
2026-05-06 09:40 -22.55222 18.02430 13891 ft 296 kts 292°
2026-05-06 09:41 -22.54171 18.00496 13547 ft 301 kts 293°
2026-05-06 09:41 -22.53103 17.98530 13218 ft 304 kts 293°
2026-05-06 09:41 -22.52032 17.96558 12904 ft 304 kts 294°
2026-05-06 09:41 -22.50965 17.94595 12587 ft 301 kts 294°
2026-05-06 09:42 -22.50249 17.93278 12371 ft 300 kts 294°
2026-05-06 09:42 -22.49198 17.91345 12065 ft 298 kts 295°
2026-05-06 09:42 -22.48152 17.89422 11757 ft 296 kts 295°
2026-05-06 09:42 -22.47111 17.87510 11451 ft 294 kts 295°
2026-05-06 09:43 -22.46095 17.85643 11236 ft 289 kts 296°
2026-05-06 09:43 -22.45093 17.83800 11104 ft 280 kts 296°
2026-05-06 09:43 -22.44117 17.82012 10907 ft 274 kts 296°
2026-05-06 09:43 -22.43148 17.80241 10646 ft 273 kts 296°
2026-05-06 09:44 -22.42187 17.78484 10399 ft 270 kts 297°
2026-05-06 09:44 -22.41237 17.76748 10166 ft 267 kts 297°
2026-05-06 09:44 -22.40331 17.75019 9929 ft 261 kts 290°
2026-05-06 09:44 -22.39938 17.73134 9590 ft 257 kts 275°
2026-05-06 09:45 -22.39686 17.71270 9467 ft 243 kts 275°
2026-05-06 09:45 -22.39444 17.69509 9316 ft 231 kts 275°
2026-05-06 09:45 -22.39217 17.67834 9156 ft 220 kts 274°
2026-05-06 09:45 -22.39307 17.66218 8894 ft 213 kts 251°
2026-05-06 09:46 -22.39857 17.64761 8672 ft 208 kts 241°
2026-05-06 09:46 -22.40484 17.63406 8445 ft 191 kts 241°
2026-05-06 09:46 -22.41048 17.62183 8216 ft 172 kts 241°
2026-05-06 09:46 -22.41558 17.61073 8018 ft 162 kts 241°
2026-05-06 09:47 -22.42057 17.59986 7819 ft 160 kts 240°
2026-05-06 09:47 -22.42554 17.58911 7616 ft 160 kts 240°
2026-05-06 09:47 -22.43052 17.57829 7412 ft 161 kts 240°
2026-05-06 09:47 -22.43550 17.56739 7181 ft 162 kts 239°
2026-05-06 09:48 -22.44054 17.55651 6991 ft 163 kts 240°
2026-05-06 09:48 -22.44555 17.54554 6799 ft 163 kts 239°
2026-05-06 09:48 -22.45056 17.53457 6592 ft 162 kts 240°
2026-05-06 09:48 -22.45570 17.52368 6360 ft 161 kts 241°
2026-05-06 09:49 -22.46046 17.51310 6065 ft 153 kts 242°
2026-05-06 09:49 -22.46519 17.50294 5836 ft 149 kts 241°
2026-05-06 09:49 -22.46981 17.49301 5683 ft 145 kts 241°
2026-05-06 09:49 -22.47410 17.48353 5532 ft 131 kts 243°
2026-05-06 09:50 -22.47729 17.47668 5551 ft 74 kts 244°
2026-05-06 09:50 -22.47936 17.47216 5562 ft 62 kts 244°
2026-05-06 09:50 -22.48114 17.46828 5565 ft 49 kts 244°
2026-05-06 09:50 -22.48216 17.46607 5564 ft 28 kts 242°
2026-05-06 09:51 -22.48297 17.46426 5565 ft 25 kts 243°
2026-05-06 09:51 -22.48379 17.46291 5569 ft 19 kts 202°
2026-05-06 09:51 -22.48425 17.46302 5569 ft 0 kts 147°
2026-05-06 09:51 -22.48429 17.46304 5569 ft 3 kts 151°
2026-05-06 09:52 -22.48469 17.46312 5571 ft 8 kts 210°
2026-05-06 09:52 -22.48493 17.46261 5571 ft 7 kts 240°
2026-05-06 09:52 -22.48514 17.46219 5573 ft 6 kts 244°
2026-05-06 09:52 -22.48536 17.46196 5575 ft 4 kts 195°
2026-05-06 09:53 -22.48570 17.46205 5574 ft 8 kts 152°
2026-05-06 09:53 -22.47366 17.48447 5526 ft 1 kts 242°
2026-05-06 09:53 -22.47368 17.48445 5530 ft 1 kts 242°
2026-05-06 09:54 -22.47368 17.48443 5526 ft 1 kts 242°
2026-05-06 09:54 -22.47375 17.48430 5527 ft 0 kts 241°